Location: Alfortville
(48.8058°N, 2.4204°E)
Time: 08:19:45
(UTC+00:00)

NANOSAT C BR1 - Visible Passes

Search period start: 01 April 2023 00:00
Search period end: 11 April 2023 00:00
Orbit: 575 x 590 km, 98.0° (Epoch: 31 March)

Date Brightness Start Highest point End Pass type
(mag) Time Alt. Az. Time Alt. Az. Time Alt. Az.
01 Apr ? 01:27:12 10° NE 01:28:39 14° ENE 01:28:39 14° ENE visible
01 Apr ? 03:01:15 10° N 03:05:03 58° NW 03:05:03 58° NW visible
02 Apr ? 01:32:45 10° NE 01:34:39 16° ENE 01:34:39 16° ENE visible
02 Apr ? 03:07:06 10° N 03:11:02 52° WNW 03:11:02 52° WNW visible
03 Apr ? 01:38:19 10° NE 01:40:37 18° E 01:40:37 18° E visible
03 Apr ? 03:12:55 10° N 03:16:52 45° WNW 03:17:00 45° WNW visible
04 Apr ? 01:43:53 10° NE 01:46:33 21° E 01:46:33 21° E visible
04 Apr ? 03:18:44 10° N 03:22:36 40° WNW 03:22:57 39° W visible
05 Apr ? 01:49:29 10° NE 01:52:29 24° E 01:52:29 24° E visible
05 Apr ? 03:24:32 10° N 03:28:18 35° WNW 03:28:52 34° W visible
06 Apr ? 01:55:04 10° NE 01:58:23 27° E 01:58:23 27° E visible
06 Apr ? 03:30:19 10° N 03:33:59 31° WNW 03:34:46 29° W visible
07 Apr ? 02:00:40 10° NNE 02:04:15 31° E 02:04:15 31° E visible
07 Apr ? 03:36:06 10° N 03:39:37 28° WNW 03:40:39 25° W visible
08 Apr ? 02:06:14 10° NNE 02:10:02 35° E 02:10:06 35° E visible
08 Apr ? 03:41:51 10° N 03:45:14 25° WNW 03:46:29 22° W visible
09 Apr ? 02:11:48 10° NNE 02:15:42 40° E 02:15:55 40° ESE visible
09 Apr ? 03:47:36 10° NNW 03:50:50 23° WNW 03:52:19 19° W visible
10 Apr ? 02:17:22 10° NNE 02:21:20 45° E 02:21:43 44° ESE visible
10 Apr ? 03:53:21 10° NNW 03:56:24 20° WNW 03:58:06 16° W visible
